Regional Weather Roundup
Issued by NWS

Home | Current Version | Previous Version | Graphics & Text | Print | Product List | Glossary On
Versions: 1 2 3 4 5 6 7 8 9 10 11 12 13 14 15 16 17 18 19 20 21 22 23 24 25 26 27 28 29 30 31 32 33 34 35 36 37 38 39 40 41 42 43 44 45 46 47 48 49 50
000
ASUS43 KMPX 011701
RWRMN
WEATHER ROUNDUP FOR MINNESOTA
NATIONAL WEATHER SERVICE TWIN CITIES/CHANHASSEN MN
1200 PM CDT MON JUN 01 2015


NOTE: "FAIR" INDICATES FEW OR NO CLOUDS BELOW 12,000 FEET WITH NO
SIGNIFICANT WEATHER AND/OR OBSTRUCTIONS TO VISIBILITY. N/A MEANS
CURRENT SKY AND/OR WEATHER CONDITIONS ARE NOT AVAILABLE.

MNZ060>063-068>070-011800-
   Twin Cities Metro

CITY           SKY/WX    TMP DP  RH WIND       PRES   REMARKS
TWIN CITIES    MOSUNNY   61  39  44 E9        30.24F
ST PAUL        SUNNY     61  37  41 SE8       30.25F
CRYSTAL        MOSUNNY   64  36  35 VRB6      30.22F
BLAINE         PTSUNNY   63  34  34 SE12G18   30.24F
LAKEVILLE      SUNNY     61  39  44 SE6       30.23F
EDEN PRAIRIE   SUNNY     63  39  41 SE13      30.22F
SOUTH ST PAUL  SUNNY     62  31  31 SE10      30.24F
LAKE ELMO      FAIR      61  37  41 SE9G17    30.26S
$$
MNZ001>005-007-008-013>017-022>024-027-028-011800-
   Northwest Minnesota

CITY           SKY/WX    TMP DP  RH WIND       PRES   REMARKS
BEMIDJI        MOSUNNY   62  42  48 S15G22    30.16F
HALLOCK        CLOUDY    63  43  48 S21G26    30.06F
ROSEAU         MOSUNNY   66  43  42 S14       30.11F
WARROAD        SUNNY     64  48  55 S16       30.13F
THIEF RVR FALL CLOUDY    63  43  48 S14       30.11F
CROOKSTON      CLOUDY    66  45  45 S21       30.09F
FOSSTON        MOSUNNY   63  43  48 SE15G21   30.13F
DETROIT LAKES  MOSUNNY   63  45  51 SE16G22   30.14F
MOORHEAD       PTSUNNY   64  46  52 S22G29    30.09F
PARK RAPIDS    CLOUDY    63  42  46 SE18      30.17F
MAHNOMEN       CLOUDY    60  44  54 SE12G17   30.13F
$$
MNZ006-009>011-018-025>026-011800-
   North Central Minnesota

CITY           SKY/WX    TMP DP  RH WIND       PRES   REMARKS
BAUDETTE       LGT RAIN  65  40  39 S16G24    30.15F
FLAG ISLAND    SUNNY     57  43  58 S21       30.12F
INTL FALLS     SUNNY     65  39  38 SE10G18   30.19F
WASKISH        SUNNY     64  45  48 S9G17     30.16F
BIG FORK       MOSUNNY   64  43  45 S12G17    30.21F
LONGVILLE      MOSUNNY   61  43  51 SE14      30.20F
GRAND RAPIDS   MOSUNNY   61  39  44 S20       30.22F
CRANE LAKE     SUNNY     63  36  36 S10       30.25S
COOK           SUNNY     63  39  42 SE10G21   30.24F
WALKER         CLOUDY    60  43  52 S13G22    30.19S
$$
MNZ012-019>021-037-011800-
   Northeast Minnesota

CITY           SKY/WX    TMP DP  RH WIND       PRES   REMARKS
DULUTH         SUNNY     55  38  52 SE7       30.27F
HIBBING        SUNNY     63  37  38 SE13      30.23F
EVELETH        SUNNY     63  37  39 S9G16     30.25F
DULUTH HARBOR  SUNNY     46  39  76 NE13      30.31F
TWO HARBORS    SUNNY     57  39  51 E6        30.28S
SILVER BAY     SUNNY     57  34  41 NE9       30.28S
GRAND MARAIS     N/A     45  30  55 E6        30.34F
G MARAIS ARPRT SUNNY     54  25  32 SE3       30.32S
$$
MNZ029>031-032-039>041-046>048-054>057-064-011800-
   West Central Minnesota

CITY           SKY/WX    TMP DP  RH WIND       PRES   REMARKS
FERGUS FALLS   PTSUNNY   64  45  48 S18       30.13S
WHEATON        PTSUNNY   64  46  52 SE20G26   30.11F
MORRIS         MOSUNNY   68  46  45 SE21G26   30.12F
ALEXANDRIA     CLOUDY    63  44  50 SE16      30.17F
ELBOW LAKE     CLOUDY    64  46  52 SE20G25   30.13S
WADENA         SUNNY     63  45  51 SE18G24   30.17S
GLENWOOD       CLOUDY    63  45  51 SE16      30.18S
APPLETON       PTSUNNY   68  46  45 SE15G22   30.12F
BENSON         PTSUNNY   66  43  42 S13G20    30.15F
ORTONVILLE     PTSUNNY   68  46  45 SE16      30.10F
MADISON        MOSUNNY   70  46  43 S16G23    30.11F
WILLMAR        FAIR      68  45  42 SE17G26   30.19S
$$
MNZ033>034-036-042>043-049>051-058-059-011800-
   Central Minnesota

CITY           SKY/WX    TMP DP  RH WIND       PRES   REMARKS
ST CLOUD       SUNNY     64  41  42 SE9       30.21F
SAUK CENTRE    FAIR      64  46  50 SE13G21   30.19F
PAYNESVILLE    CLOUDY    60  43  54 E13       30.20F
AITKIN         MOSUNNY   64  36  34 S13G23    30.21F
PINE RIVER     MOSUNNY   61  45  55 SE17G23   30.23F
BRAINERD       PTSUNNY   62  40  44 SE14G21   30.21F
STAPLES        MOSUNNY   63  43  48 S12       30.19F
LONG PRAIRIE   CLOUDY    63  43  48 E15G22    30.20S
LITTLE FALLS   SUNNY     63  41  45 SE12G20   30.21S
LITCHFIELD     SUNNY     64  45  48 S7        30.21S
BUFFALO        SUNNY     63  40  43 SE9       30.23S
MAPLE LAKE     SUNNY     65  47  52 SE7       30.22F
$$
MNZ037-044-045-052-053-011800-
   East Central Minnesota

CITY           SKY/WX    TMP DP  RH WIND       PRES   REMARKS
PRINCETON      MOSUNNY   64  36  34 E12       30.23F
MORA           PTSUNNY   61  37  41 SE9G16    30.26F
CAMBRIDGE      MOSUNNY   64  43  45 SE8G18    30.22F
RUSH CITY      MOSUNNY   62  38  40 SE9G16    30.25F
MOOSE LAKE     SUNNY     63  37  39 SE7       30.23S
HINCKLEY       FAIR      63  39  42 SE10      30.25F
CLOQUET        SUNNY     57  39  51 SE5       30.26F
MCGREGOR       MOSUNNY   63  36  36 S10       30.23F
$$
MNZ071>073-080-081-089-090-097-098-011800-
   Southwest Minnesota

CITY           SKY/WX    TMP DP  RH WIND       PRES   REMARKS
MONTEVIDEO     PTSUNNY   66  46  48 SW10G16   30.15F
GRANITE FALLS  MOSUNNY   68  45  42 SE18      30.16F
CANBY          PTSUNNY   68  47  47 SE14G22   30.13F
MARSHALL       MOSUNNY   66  45  45 S17       30.14F
REDWOOD FALLS  MOSUNNY   69  45  41 SE17G24   30.17S
OLIVIA         MOSUNNY   64  43  45 S12       30.17S
PIPESTONE      SUNNY     66  48  52 S15       30.14S
WINDOM         SUNNY     68  45  42 SE13      30.17F
WORTHINGTON    PTSUNNY   66  45  45 S14G20    30.16S
JACKSON        SUNNY     68  46  45 SE10      30.18S
TRACY          CLOUDY    68  46  45 S13G18    30.16S
SLAYTON        PTSUNNY   67  44  44 SE16G22   30.16F
$$
MNZ065>067-074>077-082>085-091>093-011800-
   South Central Minnesota

CITY           SKY/WX    TMP DP  RH WIND       PRES   REMARKS
MANKATO        SUNNY     64  41  42 SE13      30.21F
NEW ULM        SUNNY     64  43  45 SE13G20   30.19F
ST JAMES       SUNNY     68  46  45 SE13      30.19F
FAIRMONT       SUNNY     64  43  45 SE14      30.18F
GLENCOE        SUNNY     65  47  50 SE8       30.21S
FARIBAULT      SUNNY     63  43  48 E5        30.23F
OWATONNA       SUNNY     63  43  48 E12       30.22F
WASECA         SUNNY     63  41  45 SE9       30.23F
ALBERT LEA     SUNNY     64  43  45 SE3G17    30.22F
$$
MNZ078>079-086>088-094>096-011800-
   Southeast Minnesota

CITY           SKY/WX    TMP DP  RH WIND       PRES   REMARKS
ROCHESTER      SUNNY     60  37  42 E9        30.26S
RED WING       SUNNY     63  37  39 E9        30.24F
STANTON        SUNNY     62  33  34 E7        30.22F
DODGE CENTER   SUNNY     61  37  41 SE12      30.24F
WINONA         SUNNY     61  43  51 SE7       30.26F
AUSTIN         SUNNY     63  45  51 E8        30.23F
PRESTON        SUNNY     59  39  47 SE10      30.26S
$$
ABBREVIATIONS USED IN REMARKS
   TC - TEMPERATURES IN CELSIUS
  WCI - WIND CHILL INDEX
   HX - HEAT INDEX
  VSB - VISIBILITY
$$



USA.gov is the U.S. government's official web portal to all federal, state and local government web resources and services.